www.pogodaiklimat.ru

Погода и климат >> Архив погоды >> Парагвай >> Mariscal Estigar


ПОГОДА в Mariscal Estigar

  • Прогноз погоды в Mariscal Estigar
  • Монитор погоды в Mariscal Estigar
  • Климат города

АРХИВ ПОГОДЫ в Mariscal Estigar

Время (UTC), дата Ветер
(напр.,м/с)
 
Видим.   Явления Облачность Т
(С)
Тd
(С)
f
(%)
Тe
(С)
Тes
(С)
Комфортность P
(гПа)
Po
(гПа)
Тmin
(С)
Tmax
(С)
R
(мм)
R24
(мм)
S
(см)
09 16.01 штиль 0 20 км ясно +20.0 +18.6 92 +23 +23 комфорт 1011.6 992.1
12 16.01 штиль 0 20 км ясно +24.8 +22.1 85 +32 +41 очень
душно
1012.6 994.4 +19.5
15 16.01 штиль 0 20 км 6/6 900 м
[Cu Sc]
+31.0 +18.8 48 +36 +47 очень
душно
1012.1 993.3
18 16.01 З 3 20 км 6/6 900 м
[Cu Sc]
+33.6 +22.5 52 +43 +49 опасность
перегрева
1009.4 990.8
21 16.01 С 3 20 км 3/3 1200 м
[Cu Sc]
+34.4 +18.5 39 +39 +41 очень
душно
1006.6 988.1
00 17.01 штиль 0 20 км ясно +28.8 +21.8 66 +37 +37 очень
душно
1007.8 989.0 +35.2
06 17.01 штиль 0 20 км 1/0 2000 м
[Ac trans]
+25.6 +21.5 78 +33 +33 очень
душно
1009.4 990.3
09 17.01 штиль 0 20 км 3/0 2000 м
[Ac trans]
+24.0 +21.2 84 +30 +30 очень
душно
1009.4 990.1
12 17.01 С 2 20 км 5/0
[Cs]
+27.0 +22.6 77 +36 +42 очень
душно
1010.8 991.7 +20.0
15 17.01 С 4 20 км 6/5 1200 м
[Cu Sc Ci fib]
+34.2 +20.5 45 +41 +48 опасность
перегрева
1009.3 990.7
18 17.01 С 4 20 км 5/5 1200 м
[Cu Sc]
+37.2 +18.9 34 +41 +48 опасность
перегрева
1007.0 988.7
21 17.01 С 3 20 км 6/5 1200 м
[Cu Sc Cs]
+36.4 +19.0 36 +41 +42 опасность
перегрева
1004.8 986.4
00 18.01 СВ 4 20 км 5/3 1200 м
[Sc Cs]
+27.4 +23.7 80 +37 +37 очень
душно
1008.1 989.1 +37.5
09 18.01 С 2 20 км 3/0 2000 м
[Ac trans]
+23.6 +21.4 87 +30 +30 очень
душно
1010.2 990.9
12 18.01 С 2 20 км 6/3 1050 м
[Cu hum Ac und]
+25.6 +21.9 80 +33 +36 очень
душно
1011.4 992.3 +23.6
15 18.01 СВ 2 20 км 8/3 900 м
[Cu hum Ac As]
+28.8 +21.9 66 +37 +44 очень
душно
1012.2 993.3
18 18.01 СВ 3 20 км 5/3 1050 м
[Cu med, cong Ac und]
+32.0 +21.7 55 +41 +49 опасность
перегрева
1010.3 991.6
21 18.01 СВ 2 20 км 4/3 1200 м
[Cu med, cong Cs]
+34.4 +20.3 44 +41 +43 опасность
перегрева
1007.3 988.8
00 19.01 штиль 0 20 км зарница 4/4 750 м
[Cb cap]
+30.0 +22.5 64 +39 +39 очень
душно
1009.8 990.9 +35.0
03 19.01 ЮЗ 2 5000 м гроза, ливневой дождь 10/8 180 м
[Cb cap As op]
+27.2 +22.3 75 +36 +36 очень
душно
1011.0 993.8 0.2
06 19.01 ЮЗ 2 20 км гроза без осадков 10/8 300 м
[Cb cap Ac As]
+25.2 +21.7 81 +32 +32 очень
душно
1011.6 992.4
09 19.01 штиль 0 20 км 10/10 360 м
[Sc]
+23.6 +22.8 95 +31 +31 очень
душно
1012.6 993.3 15
12 19.01 ЮЗ 2 20 км 10/10 360 м
[Sc]
+23.2 +22.8 98 +32 +32 очень
душно
1014.5 995.1 +23.2 0.4
15 19.01 З 2 20 км 10/10 360 м
[Sc]
+25.8 +23.2 86 +35 +35 очень
душно
1014.3 995.1
18 19.01 ЮЗ 2 20 км 8/8 540 м
[Cu Sc]
+28.2 +23.5 76 +38 +42 очень
душно
1012.5 993.5
21 19.01 ЮЗ 2 20 км 6/6 660 м
[Cu Sc]
+29.6 +23.0 68 +40 +41 очень
душно
1009.4 990.5
00 20.01 штиль 0 20 км 3/3 1050 м
[Sc]
+27.0 +24.2 85 +38 +38 очень
душно
1010.6 991.5 +31.0
03 20.01 штиль 0 20 км ясно +25.2 +23.3 89 +34 +34 очень
душно
1011.8 992.6
06 20.01 штиль 0 20 км 5/3 800 м
[Sc Ac und]
+23.6 +22.5 94 +31 +31 очень
душно
1011.4 992.1
09 20.01 ЮЗ 2 20 км 6/3 800 м
[Sc Ac und]
+23.0 +21.9 94 +31 +31 очень
душно
1010.8 991.5
12 20.01 В 2 20 км 6/3 800 м
[Cu hum Ac und Cs]
+26.4 +24.2 88 +37 +40 очень
душно
1011.0 991.9 +22.6
18 20.01 С 2 20 км зарница 5/4 900 м
[Cb cap Ac cuf]
+33.2 +21.5 50 +41 +50 опасность
перегрева
1006.3 987.7 0.9
21 20.01 СЗ 2 20 км зарница {гроза} 6/4 600 м
[Cb cap Ac cuf Ci sp]
+27.2 +24.0 83 +38 +39 очень
душно
1004.8 985.8 2
00 21.01 штиль 0 20 км зарница {гроза} 4/4 750 м
[Cb cap Ac cuf]
+26.6 +24.1 86 +37 +37 очень
душно
1006.3 987.3 +34.8
06 21.01 СВ 4 20 км зарница {гроза} 4/4 900 м
[Cb cap]
+25.0 +23.3 90 +33 +33 очень
душно
1006.6 987.5
09 21.01 штиль 0 20 км 5/0
[Cs]
+24.2 +23.7 97 +33 +33 очень
душно
1007.7 988.5
12 21.01 С 2 20 км 8/3 1200 м
[Sc Ac trans Cs]
+25.6 +23.4 88 +35 +38 очень
душно
1008.4 989.4 +23.2 2
15 21.01 СЗ 7 20 км 6/5 1200 м
[Cu Sc Cs]
+31.6 +21.8 56 +40 +43 очень
душно
1008.8 990.1
18 21.01 СЗ 8 20 км 6/5 1200 м
[Cu Sc Cs]
+35.6 +21.6 44 +43 +45 опасность
перегрева
1004.1 985.7
21 21.01 СЗ 5 20 км 5/4 1200 м
[Cu Sc Cs]
+37.0 +17.1 31 +40 +41 очень
душно
1001.0 982.8
00 22.01 С 2 20 км 3/0 2000 м
[Ac trans]
+31.6 +19.9 50 +38 +38 очень
душно
1002.5 983.9 +37.8
03 22.01 С 2 20 км 3/0 2000 м
[Ac trans]
+29.0 +19.7 57 +35 +35 очень
душно
1004.2 985.4
06 22.01 С 2 20 км 1/0 2000 м
[Ac trans]
+26.8 +19.6 65 +33 +33 очень
душно
1004.4 985.4
09 22.01 С 2 20 км 1/0 2000 м
[Ac trans]
+24.8 +20.6 77 +31 +31 очень
душно
1004.8 985.7
12 22.01 С 4 20 км 5/0
[Cs]
+27.4 +21.0 68 +34 +39 очень
душно
1007.2 987.2 +24.5
15 22.01 С 8 20 км 5/4 1200 м
[Cu Sc Ci fib]
+33.6 +20.6 47 +41 +43 опасность
перегрева
1005.1 986.6
18 22.01 С 9 20 км 5/5 1200 м
[Cu Sc]
+37.8 +18.4 32 +42 +42 опасность
перегрева
1001.4 983.2
21 22.01 С 6 20 км 5/4 1200 м
[Cu Sc Cs]
+37.2 +17.0 30 +40 +40 очень
душно
999.2 980.9
00 23.01 С 3 20 км 4/4 2000 м
[Cu med, cong Ac trans]
+32.8 +19.2 45 +38 +38 очень
душно
1000.5 982.0 +38.6

 

Местоположение метеостанции Mariscal Estigar (Парагвай): широта -22.01 долгота -60.60 высота над уровнем моря 172 м.

В архиве по умолчанию представлена погода в Mariscal Estigar за последнюю неделю. Архивные данные за месяц целиком и за предыдущие месяцы, начиная с января 2011 года, Вы можете получить, выбрав интересующий диапазон дат из раскрывающегося списка и нажав кнопку "Ввод!".

Внимание! Время в таблицах - всемирное. Для получения местного времени необходимо прибавить поправку, которая в Mariscal Estigar равна -4 ч.

Смотрите также архив погоды в соседних городах и на ближайших метеорологических станциях:

Погода в Prats-Gil (Парагвай) (120 км)
Погода в Pozo Colorado (Парагвай) (232 км)
Погода в Puerto Casado (Парагвай) (284 км)
Погода в Las Lomitas (Аргентина) (299 км)
Погода в Villamontes (Боливия) (307 км)
Погода в Yacuiba (Боливия) (315 км)
Погода в Tartagal (Аргентина) (336 км)
Погода в Gral. Bruguez (Парагвай) (355 км)
Погода в Concepcion (Парагвай) (373 км)
Погода в Camiri (Боливия) (378 км)

Пояснения к столбцам:

Ветер - указаны скорость ветра в м/с - средняя за 10 мин, порывы в срок и между сроками (в фигурных скобках) и направление, откуда дует ветер: С - северный, СВ - северо-восточный, В - восточный, ЮВ - юго-восточный, Ю - южный, ЮЗ - юго-западный, З - западный, СЗ - северо-западный.
Видимость - горизонтальная дальность видимости в метрах или километрах. При видимости от 1 до 10 км при отсутствии осадков обычно наблюдается дымка, при ухудшении видимости до 1 км и менее - туман. В сухую погоду видимость может ухудшаться дымом, пылью или мглою.
Явления - указаны атмосферные явления, наблюдавшиеся в срок или в последний час перед сроком; фигурными скобками обозначены явления, наблюдавшиеся между сроками (за 1-3 часа до срока); квадратными скобками обозначены град или гололедные отложения с указанием их диаметра в мм.
Облачность - указаны через наклонную черту общая и нижняя облачность в баллах и высота нижней границы облаков в метрах; квадратными скобками обозначены формы облаков: Ci - перистые, Cs - перисто-слоистые, Cc - перисто-кучевые, Ac - высококучевые, As - высокослоистые, Sc - слоисто-кучевые, Ns - слоисто-дождевые, Cu - кучевые, Cb - кучево-дождевые. Подробнее классификацию облаков см. в Атласе облаков (PDF).
T - Температура воздуха - температура, измеренная на высоте 2 м над землей.
Td - Температура точки росы - температура, при понижении до которой содержащийся в воздухе водяной пар достигнет насыщения.
f - Относительная влажность воздуха - влажноcть воздуха, измеренная на высоте 2 м над землей.
Te - Эффективная температура - температура, которую ощущает одетый по сезону человек в тени. Характеристика душности погоды. При расчете учитывается влияние влажности воздуха и скорости ветра на теплоощущения человека.
Tes - Эффективная температура на солнце - температура, которую ощущает человек, с поправкой на солнечный нагрев. Характеристика знойности погоды. Зависит от высоты солнца над горизонтом, облачности и скорости ветра. Ночью, в пасмурную погоду, а также при ветре 12 м/с и более поправка равна нулю.
P - Атмосферное давление - приведенное к уровню моря атмосферное давление.
Po - Атмосферное давление - измеренное на уровне метеостанции атмосферное давление.
Tmin - Минимальная температура - минимум температуры воздуха на высоте 2 м над землей.
Tmax - Максимальная температура - максимум температуры воздуха на высоте 2 м над землей.
R - Количество осадков - Количество выпавших осадков за период времени, мм. При наведении курсора мыши на число - период времени, за который выпало указанное количество осадков.
R24 - Количество осадков - Количество выпавших осадков за 24 часа, мм.
S - Снежный покров - Высота снежного покрова, см. При наведении курсора мыши на число - состояние снежного покрова и степень покрытия местности в баллах.